This demonstration page uses our WeatherBlox Daily Observations layout. Learn more.

Left ArrowRight Arrow

38.80484, -77.04692

Hourly Observations for July 31, 2018

Temp ( °F °C ) Dew Point ( °F °C ) Humidity (%) Winds ( mph kmh ) Pressure ( in mb ) Visibility ( mi km ) Precip ( " mm )
12:17 am 00:17 Cloudy 73 22.8 69 20.6 87 87 ENE 6 9 30.09 1019 10 16 0.00 0.00
12:39 am 00:39 Cloudy with Drizzle 73 22.8 69 20.6 87 87 ENE 5 7 30.09 1019 5 8 0.00 0.03
12:52 am 00:52 Cloudy with Drizzle 73 22.8 68 20 84 84 ENE 3 6 30.09 1019 5 8 0.00 0.03
1:52 am 01:52 Cloudy 72 22.2 68 20 87 87 ENE 7 11 30.08 1019 10 16 0.00 0.03
2:32 am 02:32 Cloudy 72 22.2 68 20 87 87 E 7 11 30.06 1018 10 16 0.00 0.00
2:52 am 02:52 Cloudy 72 22.2 68 20 87 87 E 6 9 30.08 1019 10 16 0.00 0.00
3:27 am 03:27 Cloudy with Haze 72 22.2 67 19.4 84 84 ENE 6 9 30.09 1019 10 16 0.00 0.00
3:49 am 03:49 Cloudy with Light Rain 72 22 68 20 88 88 NE 5 7 30.09 1019 4 6 0.00 0.03
3:52 am 03:52 Cloudy with Light Rain 71 21.7 68 20 90 90 NNE 6 9 30.08 1019 4 6 0.01 0.25
3:54 am 03:54 Cloudy with Light Rain 71 21.7 68 20 90 90 NNE 6 9 30.09 1019 3 4 0.00 0.03
4:13 am 04:13 Cloudy with Light Rain 71 21.7 68 20 90 90 NE 5 7 30.09 1019 3 5 0.01 0.25
4:47 am 04:47 Cloudy 72 22 68 20 88 88 N 5 7 30.09 1019 10 16 0.01 0.25
4:52 am 04:52 Cloudy 72 22.2 68 20 87 87 N 5 7 30.09 1019 10 16 0.01 0.25
5:40 am 05:40 Cloudy 72 22.2 68 20 87 87 E 6 9 30.09 1019 10 16 0.00 0.00
5:52 am 05:52 Cloudy 72 22.2 68 20 87 87 NE 6 9 30.09 1019 10 16 0.00 0.00
6:11 am 06:11 Mostly Cloudy 72 22.2 68 20 87 87 ENE 8 13 30.09 1019 10 16 0.00 0.00
6:41 am 06:41 Mostly Cloudy 72 22.2 69 20.6 91 91 NNE 7 11 30.12 1020 10 16 0.00 0.00
6:52 am 06:52 Mostly Cloudy 72 22.2 68 20 87 87 NE 6 9 30.10 1019 10 16 0.00 0.00
6:55 am 06:55 Cloudy 72 22.2 69 20.6 91 91 NNE 6 9 30.09 1019 10 16 0.00 0.00
7:42 am 07:42 Cloudy 73 22.8 69 20.6 87 87 ENE 7 11 30.09 1019 10 16 0.00 0.00
7:52 am 07:52 Cloudy 73 22.8 69 20.6 87 87 ENE 8 13 30.10 1019 10 16 0.00 0.00
8:12 am 08:12 Cloudy 73 22.8 69 20.6 87 87 ENE 8 13 30.09 1019 10 16 0.00 0.00
8:52 am 08:52 Cloudy 74 23.3 69 20.6 85 85 ENE 6 9 30.11 1020 10 16 0.00 0.00
8:59 am 08:59 Cloudy 74 23.3 69 20.6 85 85 VRB 6 9 30.12 1020 10 16 0.00 0.00
9:27 am 09:27 Cloudy 75 23.9 69 20.6 82 82 E 5 7 30.09 1019 10 16 0.00 0.00
9:52 am 09:52 Cloudy 76 24.4 69 20.6 79 79 ESE 6 9 30.11 1020 10 16 0.00 0.00
10:52 am 10:52 Cloudy 77 25 70 21.1 79 79 SE 3 6 30.11 1020 10 16 0.00 0.00
11:30 am 11:30 Cloudy 79 26.1 69 20.6 72 72 ESE 7 11 30.09 1019 10 16 0.00 0.00
11:52 am 11:52 Cloudy 78 25.6 69 20.6 74 74 SSE 5 7 30.10 1019 10 16 0.00 0.00
12:10 pm 12:10 Cloudy with Light Rain 78 25.6 70 21.1 76 76 SSE 6 9 30.09 1019 10 16 0.00 0.03
12:52 pm 12:52 Cloudy 77 25 71 21.7 82 82 ESE 5 7 30.10 1019 10 16 0.00 0.03
1:52 pm 13:52 Cloudy 80 26.7 71 21.7 74 74 N 3 6 30.10 1019 10 16 0.00 0.00
2:52 pm 14:52 Cloudy 81 27.2 72 22.2 74 74 Calm 30.08 1019 10 16 0.00 0.03
3:52 pm 15:52 Mostly Cloudy 83 28.3 71 21.7 67 67 Calm 30.04 1017 10 16 0.00 0.00
4:15 pm 16:15 Mostly Cloudy 83 28.3 72 22.2 70 70 ESE 3 6 30.03 1017 10 16 0.00 0.00
4:18 pm 16:18 Mostly Cloudy 83 28.3 71 21.7 67 67 SSE 6 9 30.03 1017 10 16 0.00 0.00
4:34 pm 16:34 Mostly Cloudy 83 28.3 71 21.7 67 67 S 7 11 30.03 1017 10 16 0.00 0.00
4:52 pm 16:52 Mostly Cloudy 83 28.3 71 21.7 67 67 SSE 8 13 30.04 1017 10 16 0.00 0.00
5:52 pm 17:52 Mostly Cloudy 84 28.9 71 21.7 65 65 S 7 11 30.03 1017 10 16 0.00 0.00
6:52 pm 18:52 Mostly Cloudy with Nearby Thunderstorms 82 27.8 71 21.7 69 69 SE 6 9 30.04 1017 10 16 0.00 0.00
7:04 pm 19:04 Mostly Cloudy 82 27.8 71 21.7 69 69 ESE 6 9 30.03 1017 10 16 0.00 0.00
7:12 pm 19:12 Mostly Cloudy with Nearby Thunderstorms 82 27.8 71 21.7 69 69 E 7 11 30.03 1017 10 16 0.00 0.00
7:24 pm 19:24 Mostly Cloudy 82 27.8 71 21.7 69 69 E 8 13 30.06 1018 10 16 0.00 0.00
7:44 pm 19:44 Mostly Cloudy with Nearby Thunderstorms 82 27.8 71 21.7 69 69 ESE 10 17 30.06 1018 10 16 0.00 0.00
7:52 pm 19:52 Mostly Cloudy with Nearby Thunderstorms 81 27.2 71 21.7 72 72 ESE 9 15 30.05 1018 10 16 0.00 0.00
8:11 pm 20:11 Mostly Cloudy 81 27.2 71 21.7 72 72 SE 9 15 30.06 1018 10 16 0.00 0.00
8:52 pm 20:52 Mostly Cloudy 80 26.7 71 21.7 74 74 ESE 6 9 30.05 1018 10 16 0.00 0.00
9:52 pm 21:52 Mostly Cloudy with Light Rain 77 25 72 22.2 85 85 SSE 7 11 30.06 1018 10 16 0.01 0.25
10:52 pm 22:52 Cloudy 77 25 71 21.7 82 82 SSE 6 9 30.06 1018 10 16 0.00 0.03
11:52 pm 23:52 Cloudy with Light Rain 76 24.4 72 22.2 88 88 SSE 3 6 30.04 1017 10 16 0.00 0.03

Powered by AerisWeather